Regional Weather Roundup
Issued by NWS

Home | Current Version | Previous Version | Text Only | Print | Product List | Glossary On
Versions: 1 2 3 4 5 6 7 8 9 10 11 12 13 14 15 16 17 18 19 20 21 22 23 24 25 26 27
000
ASUS45 KBOI 282210
RWRID

IDAHO REGIONAL WEATHER ROUNDUP
NATIONAL WEATHER SERVICE BOISE ID
400 PM MDT SUN AUG 28 2016

NOTE: "FAIR" INDICATES FEW OR NO CLOUDS BELOW 12000 FEET
WITH NO SIGNIFICANT WEATHER AND/OR OBSTRUCTIONS TO VISIBILITY

IDZ012-014-282300-
SOUTHWEST IDAHO


CITY           SKY/WX    TMP DP  RH WIND       PRES   REMARKS
BOISE          SUNNY     88  41  19 N10       30.07F
CALDWELL       SUNNY     89  47  23 VRB5      30.05F
MOUNTAIN HOME  SUNNY     89  40  17 NW10G18   30.06F
$$

IDZ016-017-282300-
SOUTHCENTRAL IDAHO


CITY           SKY/WX    TMP DP  RH WIND       PRES   REMARKS
BURLEY         SUNNY     82  45  27 W12       30.13F
JEROME         SUNNY     86  41  20 W9        30.15F
TWIN FALLS     SUNNY     85  38  18 NW9       30.15F
$$

IDZ019>023-282300-
SOUTHEAST IDAHO


CITY           SKY/WX    TMP DP  RH WIND       PRES   REMARKS
IDAHO FALLS    CLOUDY    86  34  15 SW17G28   30.14F
POCATELLO      SUNNY     87  34  15 W16G23    30.15F
REXBURG        CLOUDY    84  34  16 SW15      30.14F
$$

IDZ006-010-011-018-031-032-282300-
CENTRAL IDAHO MOUNTAINS


CITY           SKY/WX    TMP DP  RH WIND       PRES   REMARKS
MCCALL         SUNNY     80  35  19 SW7       30.19F
HAILEY         MOSUNNY   82  37  20 S12       30.17F
STANLEY          N/A     77  30  17 NW12G20   30.27F
SALMON         CLOUDY    88  37  16 E3        30.05F
CHALLIS        MOSUNNY   86  28  12 SW12G18   30.11F
$$

IDZ002-004-006-007-026-282300-
NORTHERN IDAHO


CITY           SKY/WX    TMP DP  RH WIND       PRES   REMARKS
LEWISTON       SUNNY     87  40  19 NW10      30.01F
LOWELL           N/A     94  35  12 CALM      30.00F
COEUR D`ALENE  PTSUNNY   79  39  24 NW9G16    30.05S
MULLAN PASS    PTSUNNY   63  36  36 MISG      30.24S
$$




USA.gov is the U.S. government's official web portal to all federal, state and local government web resources and services.